Location: Little Chesterford
(52.0500°N, 0.1833°E)
Time: 13:55:25
(UTC+00:00)

Lacrosse 5 - Pass Details

Date: 26 September 2023
Orbit: 714 x 724 km, 57.0° (Epoch: 09 March)

Event Time Altitude Azimuth Distance (km) Brightness Sun altitude
Rises 18:32:02 0° 262° (W) 3,133 7.0 -7.4°
Reaches altitude 10° 18:34:28 10° 266° (W) 2,215 6.0 -7.8°
Maximum altitude 18:39:29 56° 345° (NNW) 860 2.4 -8.6°
Drops below altitude 10° 18:44:32 10° 64° (ENE) 2,222 3.9 -9.3°
Enters shadow 18:45:13 - 66° (ENE) 2,478 4.1 -9.4°
